When you browse on this site, cookies collect data to enhance your experience and personalize the content and advertising you see.
Visit our Privacy Policy to learn more. By continuing to use the site, you agree to this use of cookies and data.
  • In Portugal
  • List of Countries
  • For 7 days
  • Water Temperature
  • Satellite Maps
  • Weather Map
  • Weather Widgets
  • user-avatar
    Login

    Hourly Weather Yeghegnadzor

    Today, 23 May, Thursday

    Time Temperature Precipitation Wind Pressure Humidity
    00:00 +13°C° 0.1 mm 0 mps 653 mmHg 80%
    01:00 +12°C° 0 mm 0 mps 653 mmHg 81%
    02:00 +12°C° 0 mm 0 mps 653 mmHg 82%
    03:00 +12°C° 0 mm 1 mps 652 mmHg 83%
    04:00 +13°C° 0 mm 1 mps 653 mmHg 79%
    05:00 +14°C° 0 mm 1 mps 653 mmHg 75%
    06:00 +16°C° 0 mm 1 mps 653 mmHg 71%
    07:00 +17°C° 0 mm 2 mps 653 mmHg 65%
    08:00 +19°C° 0 mm 2 mps 653 mmHg 59%
    09:00 +20°C° 0 mm 2 mps 653 mmHg 53%
    10:00 +21°C° 0 mm 3 mps 653 mmHg 50%
    11:00 +22°C° 0 mm 3 mps 653 mmHg 46%
    12:00 +23°C° 0 mm 4 mps 653 mmHg 42%
    13:00 +23°C° 0.2 mm 4 mps 653 mmHg 43%
    14:00 +23°C° 0.2 mm 4 mps 653 mmHg 44%
    15:00 +23°C° 0.2 mm 4 mps 652 mmHg 44%
    16:00 +23°C° 0.3 mm 4 mps 652 mmHg 47%
    17:00 +22°C° 0.3 mm 4 mps 652 mmHg 49%
    18:00 +21°C° 0.3 mm 4 mps 652 mmHg 51%
    19:00 +20°C° 0.4 mm 3 mps 652 mmHg 57%
    20:00 +19°C° 0.4 mm 2 mps 652 mmHg 63%
    21:00 +18°C° 0.4 mm 1 mps 652 mmHg 69%
    22:00 +16°C° 0.2 mm 1 mps 652 mmHg 72%
    23:00 +16°C° 0.2 mm 1 mps 652 mmHg 75%

    Tomorrow, 24 May, Friday

    Time Temperature Precipitation Wind Pressure Humidity
    00:00 +14°C° 0.2 mm 0 mps 652 mmHg 79%
    01:00 +14°C° 0.1 mm 1 mps 652 mmHg 80%
    02:00 +14°C° 0.1 mm 1 mps 652 mmHg 81%
    03:00 +13°C° 0.1 mm 1 mps 652 mmHg 83%
    04:00 +14°C° 0 mm 1 mps 652 mmHg 80%
    05:00 +15°C° 0 mm 1 mps 653 mmHg 77%
    06:00 +16°C° 0 mm 2 mps 653 mmHg 74%
    07:00 +18°C° 0 mm 2 mps 654 mmHg 67%
    08:00 +19°C° 0 mm 2 mps 654 mmHg 60%
    09:00 +21°C° 0 mm 3 mps 654 mmHg 53%
    10:00 +22°C° 0 mm 3 mps 654 mmHg 48%
    11:00 +24°C° 0 mm 3 mps 654 mmHg 44%
    12:00 +25°C° 0 mm 4 mps 654 mmHg 40%
    13:00 +26°C° 0 mm 4 mps 654 mmHg 38%
    14:00 +27°C° 0 mm 4 mps 654 mmHg 36%
    15:00 +27°C° 0 mm 5 mps 654 mmHg 33%
    16:00 +27°C° 0.2 mm 5 mps 654 mmHg 37%
    17:00 +26°C° 0.2 mm 5 mps 654 mmHg 40%
    18:00 +25°C° 0.2 mm 4 mps 654 mmHg 43%
    19:00 +22°C° 0.3 mm 4 mps 654 mmHg 48%
    20:00 +20°C° 0.3 mm 3 mps 654 mmHg 54%
    21:00 +18°C° 0.3 mm 2 mps 654 mmHg 59%
    22:00 +18°C° 0.2 mm 2 mps 654 mmHg 59%
    23:00 +18°C° 0.2 mm 2 mps 655 mmHg 59%

    Day after tomorrow, 25 May, Saturday

    Time Temperature Precipitation Wind Pressure Humidity
    00:00 +18°C° 0.2 mm 2 mps 655 mmHg 59%
    01:00 +17°C° 0 mm 2 mps 654 mmHg 59%
    02:00 +16°C° 0 mm 2 mps 654 mmHg 59%
    03:00 +16°C° 0 mm 2 mps 654 mmHg 59%
    04:00 +17°C° 0 mm 2 mps 654 mmHg 58%
    05:00 +18°C° 0 mm 2 mps 655 mmHg 56%
    06:00 +18°C° 0 mm 2 mps 655 mmHg 54%
    07:00 +21°C° 0 mm 3 mps 655 mmHg 48%
    08:00 +24°C° 0 mm 3 mps 656 mmHg 42%
    09:00 +26°C° 0 mm 3 mps 656 mmHg 36%
    10:00 +27°C° 0 mm 4 mps 656 mmHg 33%
    11:00 +28°C° 0 mm 4 mps 656 mmHg 30%
    12:00 +29°C° 0 mm 4 mps 656 mmHg 28%
    13:00 +30°C° 0 mm 5 mps 656 mmHg 26%
    14:00 +30°C° 0 mm 5 mps 656 mmHg 25%
    15:00 +32°C° 0 mm 6 mps 655 mmHg 23%
    16:00 +29°C° 0.2 mm 5 mps 655 mmHg 28%
    17:00 +28°C° 0.2 mm 4 mps 654 mmHg 34%
    18:00 +26°C° 0.2 mm 2 mps 654 mmHg 39%
    19:00 +24°C° 0.3 mm 3 mps 654 mmHg 42%
    20:00 +21°C° 0.3 mm 3 mps 654 mmHg 44%
    21:00 +20°C° 0.3 mm 3 mps 654 mmHg 46%
    22:00 +19°C° 0 mm 3 mps 654 mmHg 49%
    23:00 +18°C° 0 mm 3 mps 653 mmHg 51%

    26 May, Sunday

    Time Temperature Precipitation Wind Pressure Humidity
    00:00 +18°C° 0 mm 3 mps 653 mmHg 54%
    01:00 +18°C° 0 mm 3 mps 653 mmHg 51%
    02:00 +17°C° 0 mm 3 mps 653 mmHg 49%
    03:00 +17°C° 0 mm 3 mps 652 mmHg 47%
    04:00 +18°C° 0 mm 3 mps 653 mmHg 47%
    05:00 +19°C° 0 mm 3 mps 653 mmHg 46%
    06:00 +19°C° 0 mm 3 mps 653 mmHg 46%
    07:00 +21°C° 0 mm 3 mps 654 mmHg 42%
    08:00 +23°C° 0 mm 4 mps 654 mmHg 38%
    09:00 +26°C° 0 mm 4 mps 654 mmHg 33%
    10:00 +28°C° 0 mm 4 mps 654 mmHg 32%
    11:00 +29°C° 0 mm 5 mps 654 mmHg 30%
    12:00 +30°C° 0 mm 6 mps 654 mmHg 29%
    13:00 +30°C° 0 mm 6 mps 654 mmHg 27%
    14:00 +30°C° 0 mm 6 mps 654 mmHg 26%
    15:00 +30°C° 0 mm 6 mps 653 mmHg 24%
    16:00 +29°C° 0 mm 6 mps 653 mmHg 26%
    17:00 +28°C° 0 mm 5 mps 653 mmHg 27%
    18:00 +27°C° 0 mm 4 mps 653 mmHg 29%
    19:00 +25°C° 0 mm 3 mps 653 mmHg 29%
    20:00 +21°C° 0 mm 2 mps 653 mmHg 30%
    21:00 +19°C° 0 mm 2 mps 653 mmHg 30%
    22:00 +18°C° 0 mm 2 mps 653 mmHg 32%
    23:00 +18°C° 0 mm 2 mps 653 mmHg 33%

    27 May, Monday

    Time Temperature Precipitation Wind Pressure Humidity
    00:00 +17°C° 0 mm 2 mps 653 mmHg 34%
    01:00 +17°C° 0 mm 2 mps 653 mmHg 41%
    02:00 +16°C° 0 mm 2 mps 653 mmHg 47%
    03:00 +16°C° 0 mm 3 mps 653 mmHg 53%
    04:00 +16°C° 0 mm 2 mps 654 mmHg 54%
    05:00 +17°C° 0 mm 2 mps 654 mmHg 54%
    06:00 +18°C° 0 mm 2 mps 655 mmHg 55%
    07:00 +20°C° 0 mm 2 mps 655 mmHg 48%
    08:00 +21°C° 0 mm 2 mps 656 mmHg 41%
    09:00 +24°C° 0 mm 2 mps 656 mmHg 34%
    10:00 +25°C° 0 mm 3 mps 656 mmHg 32%
    11:00 +26°C° 0 mm 3 mps 656 mmHg 29%
    12:00 +27°C° 0 mm 3 mps 656 mmHg 26%
    13:00 +28°C° 0 mm 4 mps 656 mmHg 25%
    14:00 +28°C° 0 mm 4 mps 656 mmHg 24%
    15:00 +28°C° 0 mm 4 mps 656 mmHg 23%
    16:00 +27°C° 0 mm 4 mps 656 mmHg 27%
    17:00 +27°C° 0 mm 3 mps 656 mmHg 31%
    18:00 +26°C° 0 mm 3 mps 656 mmHg 35%
    19:00 +24°C° 0 mm 3 mps 656 mmHg 42%
    20:00 +20°C° 0 mm 3 mps 656 mmHg 49%
    21:00 +18°C° 0 mm 3 mps 656 mmHg 57%
    22:00 +17°C° 0 mm 3 mps 656 mmHg 58%
    23:00 +17°C° 0 mm 3 mps 656 mmHg 59%

    28 May, Tuesday

    Time Temperature Precipitation Wind Pressure Humidity
    00:00 +16°C° 0 mm 3 mps 656 mmHg 61%
    01:00 +16°C° 0 mm 3 mps 656 mmHg 61%
    02:00 +16°C° 0 mm 3 mps 656 mmHg 62%
    03:00 +14°C° 0 mm 3 mps 657 mmHg 62%
    04:00 +16°C° 0 mm 3 mps 657 mmHg 61%
    05:00 +17°C° 0 mm 2 mps 658 mmHg 60%
    06:00 +17°C° 0 mm 2 mps 658 mmHg 59%
    07:00 +19°C° 0 mm 2 mps 658 mmHg 52%
    08:00 +21°C° 0 mm 2 mps 659 mmHg 45%
    09:00 +24°C° 0 mm 2 mps 659 mmHg 39%
    10:00 +25°C° 0 mm 2 mps 659 mmHg 37%
    11:00 +26°C° 0 mm 2 mps 659 mmHg 35%
    12:00 +27°C° 0 mm 2 mps 659 mmHg 34%
    13:00 +28°C° 0.2 mm 2 mps 659 mmHg 33%
    14:00 +28°C° 0.2 mm 2 mps 659 mmHg 33%
    15:00 +28°C° 0.2 mm 2 mps 658 mmHg 33%
    16:00 +28°C° 0.2 mm 2 mps 658 mmHg 35%
    17:00 +27°C° 0.2 mm 2 mps 658 mmHg 37%
    18:00 +26°C° 0.2 mm 1 mps 658 mmHg 39%
    19:00 +24°C° 0 mm 1 mps 658 mmHg 48%
    20:00 +21°C° 0 mm 2 mps 658 mmHg 56%
    21:00 +18°C° 0 mm 2 mps 657 mmHg 65%
    22:00 +18°C° 0 mm 2 mps 657 mmHg 68%
    23:00 +17°C° 0 mm 2 mps 657 mmHg 71%
    Show more